This is the latest recevied weather packets stored in our database for station/object LZ1NAG-10. If no packets are shown the sender has not sent any weather packets the latest 10 day(s).
| Time | Temp. | Humidity | Pressure | Rain* | Wind** | Luminosity | Snow |
|---|---|---|---|---|---|---|---|
| 1778163542 | 16.67° C | 51% | 1021.1 hPa | - | - | - | - |
| 1778162642 | 16.67° C | 51% | 1021.1 hPa | - | - | - | - |
| 1778161742 | 16.67° C | 51% | 1021.1 hPa | - | - | - | - |
| 1778160842 | 16.67° C | 51% | 1021.3 hPa | - | - | - | - |
| 1778159942 | 16.67° C | 51% | 1021.5 hPa | - | - | - | - |
| 1778159042 | 17.22° C | 51% | 1021.6 hPa | - | - | - | - |
| 1778158141 | 17.78° C | 51% | 1021.6 hPa | - | - | - | - |
| 1778157241 | 17.78° C | 51% | 1021.9 hPa | - | - | - | - |
| 1778156341 | 17.78° C | 51% | 1021.7 hPa | - | - | - | - |
| 1778155441 | 18.89° C | 50% | 1021.7 hPa | - | - | - | - |
| 1778154541 | 19.44° C | 50% | 1021.8 hPa | - | - | - | - |
| 1778153639 | 20° C | 50% | 1021.7 hPa | - | - | - | - |
| 1778152738 | 20.56° C | 49% | 1021.7 hPa | - | - | - | - |
| 1778151838 | 19.44° C | 50% | 1021.9 hPa | - | - | - | - |
| 1778150937 | 19.44° C | 50% | 1021.9 hPa | - | - | - | - |
| 1778150037 | 22.22° C | 48% | 1021.6 hPa | - | - | - | - |
| 1778149137 | 21.67° C | 49% | 1022.2 hPa | - | - | - | - |
| 1778148237 | 22.22° C | 48% | 1021.8 hPa | - | - | - | - |
| 1778147337 | 23.33° C | 47% | 1021.9 hPa | - | - | - | - |
| 1778146436 | 21.67° C | 48% | 1021.8 hPa | - | - | - | - |
| 1778145536 | 21.11° C | 48% | 1022 hPa | - | - | - | - |
| 1778144685 | 20.56° C | 48% | 1021.9 hPa | - | - | - | - |
| 1778144636 | 20.56° C | 48% | 1021.9 hPa | - | - | - | - |
| 1778143736 | 20° C | 48% | 1022.1 hPa | - | - | - | - |
| 1778142885 | 18.33° C | 49% | 1022.2 hPa | - | - | - | - |
* Rain since midnight (hover to see other rain measurements)
** Current wind speed in m/s (hover to see current wind gust speed)